{"data":{"norad_id":66397,"intl_designator":"2025-257T","name":"STARLINK-35510","alt_names":[],"object_type":"PAYLOAD","status":"ACTIVE","operator":null,"country":"US","launch_date":"2025-11-09","launch_site_code":"AFETR","launch_vehicle":null,"mission":null,"orbit_class":"UNKNOWN","rcs_meters":null,"size_class":null,"mass_kg":null,"dimensions":null,"purposes":["comms"],"wikipedia_slug":null,"has_3d_model":false,"image_url":null,"decayed_at":null,"tle_current":{"epoch":"2026-09-20T20:30:36.950976Z","epoch_age_seconds":62149,"freshness":"FRESH","line1":"1 66397U 25257T   26263.85459434  .00016263  00000+0  49123-3 0  9992","line2":"2 66397  53.1598  27.6971 0000919  89.6197 270.4911 15.34411406 49652","mean_motion":15.34411406,"eccentricity":9.19e-5,"inclination_deg":53.1598,"raan_deg":27.6971,"arg_perigee_deg":89.6197,"mean_anomaly_deg":270.4911,"bstar":0.00049123,"rev_number":4965,"period_min":93.847060466911,"perigee_km":462.04066927881,"apogee_km":463.29800948399,"semimajor_km":6840.8063393814,"source":"CELESTRAK","updated_at":"2026-09-21T09:00:35.888528Z"}}}